BREEZE-M DEB (TANK), 40386

Orbit data source: Space-Track

BREEZE-M DEB (TANK), 40386 is space debris in HEO originally from a launch on Sun, 01 Feb 2015 UTC launched from the Tyuratam Missile And Space Complex (TTMTR). Debris objects in space refer to the collection of defunct objects orbiting the Earth. Examples of debris include non-operational satellites, rocket bodies, and fragments generated from explosions, collisions, or faulty payload assembly.

Loading next visibility...
BREEZE-M DEB (TANK) details
Identifier
40386, 2015-005C
Orbit
HEO
Last TLE update20 hours ago
Origin
Flag of CISKhrunichev (CIS)
ManufacturerKhrunichev
MissionSpacecraft
Bus & MotorBRIZ TANK, Unknown motor
Mass~1,000 kg wet, 1,000 kg dry
Launch date (UTC)
2015-02-01 (10 years ago)
Launch vehicleUnknown
Launch site
Tyuratam Missile And Space Complex (TTMTR)
Object type
Payload
Rocket body
Debris
Shape & HBRTorus, 4 m
Radar Cross Section8.218 m², Large (>1 m²)

Expand to show TLE details & history

TLE from 20 hours ago
0 BREEZE-M DEB (TANK)
1 40386U 15005C   24339.59762630  .00003389  00000-0  18229-2 0  9998
2 40386  50.6950 116.2192 5118663 175.6161 191.7928  5.32355236185899
Epoch: 2024-12-04T14:20Z
Definitive object data (Epoch: 2024-12-04T14:20:34.912Z)
Latitude-0°
Longitude-172.82236°
Altitude14,504.952 km
Speed3.067 km/s
True Right ascension07h 44m 51s
True Declination0° 00' 00"
Sunlit
Object was in daylight at TLE epoch
Visualization TLE readout
Latitude44.75684°
Longitude-119.42609°
Altitude6,116.198 km
Speed5.923 km/s
Apparent Right ascension13h 31m 55s
Apparent Declination33° 45' 04"
Sunlit
Object is in daylight
Visualization observer readout
Local Sidereal Time07:49:32
Azimuth65.082° ENE
Elevation23.923°
Doppler factor1
Orbital elements
Apogee altitude14,569.28 km
Perigee altitude385.12 km
Semi-major axis13,855.337 km
Eccentricity0.5118663
Inclination50.695°
RAAN116.2192°
Arg. of periapsis175.6161°
True anomaly184.44147°
Mean anomaly191.7928°
Eccentric anomaly187.80834°
Mean motion1.33081 °/min
BSTAR0.0018229
Orbital period270.51 mins
Loading maneuver chart data...
Loading historical data...
Loading historical data...
Loading historical data...
Loading historical data...
Loading historical data...
Loading historical data...
Loading historical data...
Other satellites on launch #5 in the year 2015 (2015-02-01 UTC)

BREEZE-M DEB (TANK) Visibility forecast

Observer location: undefined°, undefined

Span
Click to sort rows by Start time (UTC) header in descending order
Start Az.
Max El. time (UTC)
Max El. Az.
Max El.
End time (UTC)
End Az.
6 mins2024-12-05 09:51:15.270Z65.153° ENE2024-12-05 09:51:15.270Z65.153° ENE22.061°2024-12-05 09:57:15.270Z57.422° ENE
120 mins2024-12-05 12:42:15.270Z237.044° WSW2024-12-05 14:27:15.270Z335.169° NNW43.196°2024-12-05 14:42:15.270Z61.257° ENE
19 mins2024-12-05 19:04:15.270Z304.803° NW2024-12-05 19:19:15.270Z212.704° SW42.982°2024-12-05 19:23:15.270Z143.148° SSE
114 mins2024-12-06 06:27:15.270Z134.809° SE2024-12-06 07:44:15.270Z99.702° ESE25.025°2024-12-06 08:21:15.270Z61.822° ENE
|